Simultaneous Nadir Overpasses (SNOs) Predictions

Prediction of SNOs between GOES-15 and METOP-C Satellite Orbit:

Table of predicted SNOs for the next 14.0 days since TLE Epoch: 8/2/2020
Index Date Time (GOES-15) GOES-15 Lat,Lon METOP-C Lat,Lon Distance(km) Time Diff (sec)
1 08/03/2020 06:01:04 0.01,-128.35 0.12,-127.75 68.06 80
2 08/04/2020 18:19:55 -0.01,-128.32 0.90,-132.31 454.56 80
3 08/05/2020 18:01:55 -0.01,-128.31 -0.24,-127.31 113.58 80
4 08/07/2020 06:20:55 0.02,-128.30 -0.80,-131.91 410.57 80
5 08/08/2020 05:57:35 0.02,-128.29 0.34,-126.91 157.00 80
6 08/09/2020 18:16:27 -0.02,-128.26 0.67,-131.48 366.33 80
7 08/10/2020 17:58:26 -0.02,-128.24 -0.40,-126.47 201.51 80
8 08/12/2020 06:17:25 0.01,-128.23 -0.64,-131.06 323.00 80
9 08/13/2020 05:54:06 0.01,-128.21 0.50,-126.07 243.98 80
10 08/14/2020 18:12:56 -0.01,-128.16 0.56,-130.62 280.88 80
11 08/15/2020 17:54:57 -0.01,-128.14 -0.58,-125.63 286.09 80
